DW8291 Weather Reports


time (UTC)temp
C
wind
direction
speed
KPH
gust
KPH
rain 1hr
cm
rain 24hr
cm
rain mn
cm
humidity
%
barometer
mb
20260510202603 11 0 0.0 0.0 0.00 0.51 0.00 40 1018.8
20260510202103 11 1 0.0 0.0 0.00 0.51 0.00 38 1018.7
20260510201603 11 11 0.0 0.0 0.00 0.51 0.00 39 1018.7
20260510201103 11 2 0.0 0.0 0.00 0.51 0.00 38 1018.7
20260510200603 11 1 0.0 0.0 0.00 0.51 0.00 38 1018.7
20260510200104 12 1 0.0 0.0 0.00 0.51 0.00 37 1018.7
20260510195603 12 10 0.0 0.0 0.00 0.51 0.00 38 1018.5
20260510194604 12 11 0.0 0.0 0.00 0.51 0.00 38 1018.5
20260510194103 12 9 0.0 0.0 0.00 0.51 0.00 38 1018.5
20260510193604 12 2 0.0 0.0 0.00 0.51 0.00 39 1018.4
20260510192603 12 1 0.0 0.0 0.00 0.51 0.00 38 1018.3
20260510192103 12 10 0.0 0.0 0.00 0.51 0.00 39 1018.2
20260510191603 12 9 0.0 0.0 0.00 0.51 0.00 39 1018.2
20260510190604 12 9 0.0 0.0 0.00 0.51 0.00 40 1018.0
20260510190104 12 2 0.0 0.0 0.00 0.51 0.00 40 1018.0
20260510185103 13 1 0.0 0.0 0.00 0.51 0.00 41 1017.8
20260510184603 12 10 0.0 0.0 0.00 0.51 0.00 41 1017.8
20260510184103 12 9 0.0 0.0 0.00 0.51 0.00 40 1017.7
20260510183603 12 10 0.0 0.0 0.00 0.51 0.00 42 1017.6
20260510183104 12 1 0.0 0.0 0.00 0.51 0.00 43 1017.7
20260510182103 12 2 0.0 0.0 0.00 0.51 0.00 42 1017.6
20260510181603 12 0 0.0 0.0 0.00 0.51 0.00 43 1017.5
20260510181103 12 1 0.0 0.0 0.00 0.51 0.00 42 1017.6
20260510175604 12 1 0.0 0.0 0.00 0.51 0.00 44 1017.4
20260510175103 12 1 0.0 0.0 0.00 0.51 0.00 43 1017.2
20260510174603 11 1 0.0 0.0 0.00 0.51 0.00 44 1017.2
20260510174103 11 1 0.0 0.0 0.00 0.51 0.00 43 1017.3
20260510173603 12 1 0.0 0.0 0.00 0.51 0.00 43 1017.1
20260510172603 12 2 0.0 0.0 0.00 0.51 0.00 43 1017.2
20260510172103 12 1 0.0 0.0 0.00 0.51 0.00 44 1017.1
20260510171603 12 11 0.0 0.0 0.00 0.51 0.00 45 1017.0
20260510171104 12 7 0.0 0.0 0.00 0.51 0.00 43 1017.1
20260510170603 12 11 0.0 0.0 0.00 0.51 0.00 44 1017.2
20260510170105 12 0 0.0 0.0 0.00 0.51 0.00 43 1017.0
20260510165604 12 0 0.0 0.0 0.00 0.51 0.00 45 1017.1
20260510164604 12 12 0.0 0.0 0.00 0.51 0.00 46 1017.0
20260510164104 12 1 0.0 0.0 0.00 0.51 0.00 45 1017.1
20260510163604 12 0 0.0 0.0 0.00 0.51 0.00 44 1017.1
20260510163103 12 0 0.0 0.0 0.00 0.51 0.00 43 1017.1
20260510162603 12 0 0.0 0.0 0.00 0.51 0.00 42 1017.2
20260510162104 12 0 0.0 0.0 0.00 0.51 0.00 43 1017.2
20260510161103 11 2 0.0 0.0 0.00 0.51 0.00 43 1017.1
20260510160603 11 1 0.0 0.0 0.00 0.51 0.00 44 1017.1
20260510160104 11 0 0.0 0.0 0.00 0.51 0.00 42 1017.3
20260510155604 11 0 0.0 0.0 0.00 0.51 0.00 41 1017.2
20260510155103 11 12 0.0 0.0 0.00 0.51 0.00 45 1017.2
20260510154604 11 11 0.0 0.0 0.00 0.51 0.00 45 1017.2
20260510154104 11 0 0.0 0.0 0.00 0.51 0.00 44 1017.2
20260510153604 10 0 0.0 0.0 0.00 0.51 0.00 45 1017.1
20260510153103 10 12 0.0 0.0 0.00 0.51 0.00 47 1017.0
20260510152603 10 1 0.0 0.0 0.00 0.51 0.00 46 1016.9
20260510151605 10 1 0.0 0.0 0.00 0.51 0.00 49 1016.7
20260510150603 10 1 0.0 0.0 0.00 0.51 0.00 52 1016.5
20260510145604 10 2 0.0 0.0 0.00 0.51 0.00 55 1016.4
20260510145103 10 1 0.0 0.0 0.00 0.51 0.00 56 1016.3
20260510144603 10 1 0.0 0.0 0.00 0.51 0.00 57 1016.2
20260510144103 10 1 0.0 0.0 0.00 0.51 0.00 59 1016.1
20260510143603 9 1 0.0 0.0 0.00 0.51 0.00 61 1016.1
20260510143104 8 1 0.0 0.0 0.00 0.51 0.00 61 1016.0
20260510142603 8 1 0.0 0.0 0.00 0.51 0.00 61 1016.0
20260510141604 8 1 0.0 0.0 0.00 0.51 0.00 63 1015.9
20260510141104 8 0 0.0 0.0 0.00 0.51 0.00 63 1015.9
20260510140604 8 10 0.0 0.0 0.00 0.51 0.00 62 1015.9
20260510140105 8 1 0.0 0.0 0.00 0.51 0.00 63 1015.8
20260510135604 8 1 0.0 0.0 0.00 0.51 0.00 63 1015.7
20260510135104 8 1 0.0 0.0 0.00 0.51 0.00 65 1015.7
20260510133603 7 2 0.0 0.0 0.00 0.51 0.00 65 1015.5
20260510133103 7 0 0.0 0.0 0.00 0.51 0.00 66 1015.5
20260510132604 7 0 0.0 0.0 0.00 0.51 0.00 65 1015.5
20260510131603 7 1 0.0 0.0 0.00 0.51 0.00 64 1015.3
20260510130104 7 10 0.0 0.0 0.00 0.51 0.00 66 1015.1
20260510125603 7 10 0.0 0.0 0.00 0.51 0.00 65 1015.0
20260510125104 7 9 0.0 0.0 0.00 0.51 0.00 66 1014.9
20260510124603 6 1 0.0 0.0 0.00 0.51 0.00 67 1014.9
20260510124103 6 0 0.0 0.0 0.00 0.51 0.00 68 1014.8
20260510123603 6 2 0.0 0.0 0.00 0.51 0.00 68 1014.8
20260510123104 6 1 0.0 0.0 0.00 0.51 0.00 67 1014.7
20260510122603 7 1 0.0 0.0 0.00 0.51 0.00 66 1014.6
20260510122104 7 1 0.0 0.0 0.00 0.51 0.00 67 1014.6
20260510121604 6 10 0.0 0.0 0.00 0.51 0.00 69 1014.5
20260510120603 6 2 0.0 0.0 0.00 0.51 0.00 69 1014.4
20260510120104 6 1 0.0 0.0 0.00 0.51 0.00 71 1014.3
20260510115603 5 10 0.0 0.0 0.00 0.51 0.00 70 1014.1
20260510115104 5 9 0.0 0.0 0.00 0.51 0.00 70 1014.1
20260510114605 5 10 0.0 0.0 0.00 0.51 0.00 71 1014.0
20260510114104 5 11 0.0 0.0 0.00 0.51 0.00 72 1013.9
20260510113604 5 0 0.0 0.0 0.00 0.51 0.00 72 1013.9
20260510113104 5 0 0.0 0.0 0.00 0.51 0.00 72 1013.8
20260510112103 4 0 0.0 0.0 0.00 0.51 0.00 73 1013.6
20260510111603 4 1 0.0 0.0 0.00 0.51 0.00 74 1013.5
20260510110603 3 1 0.0 0.0 0.00 0.51 0.00 77 1013.3
20260510110104 3 11 0.0 0.0 0.00 0.51 0.00 77 1013.3
20260510105603 2 2 0.0 0.0 0.00 0.51 0.00 79 1013.2
20260510105104 2 1 0.0 0.0 0.00 0.51 0.00 80 1013.0
20260510104604 2 9 0.0 0.0 0.00 0.51 0.00 80 1012.9
20260510104104 1 8 0.0 0.0 0.00 0.51 0.00 80 1012.8
20260510103604 1 1 0.0 0.0 0.00 0.51 0.00 80 1012.7
20260510102603 1 0 0.0 0.0 0.00 0.51 0.00 79 1012.5
20260510102103 2 0 0.0 0.0 0.00 0.51 0.00 79 1012.4
20260510101103 2 0 0.0 0.0 0.00 0.51 0.00 78 1012.2
20260510100604 2 0 0.0 0.0 0.00 0.51 0.00 78 1012.1
20260510095603 2 2 0.0 0.0 0.00 0.51 0.00 77 1012.0
20260510095103 2 10 0.0 0.0 0.00 0.51 0.00 77 1011.9
20260510094603 2 8 0.0 0.0 0.00 0.51 0.00 77 1011.8
20260510094104 2 1 0.0 0.0 0.00 0.51 0.00 76 1011.7
20260510093604 2 0 0.0 0.0 0.00 0.51 0.00 76 1011.7
20260510093104 2 12 0.0 0.0 0.00 0.51 0.00 76 1011.6
20260510092603 2 10 0.0 0.0 0.00 0.51 0.00 76 1011.6
20260510092104 2 1 0.0 0.0 0.00 0.51 0.00 76 1011.6
20260510091603 2 1 0.0 0.0 0.00 0.51 0.00 76 1011.5
20260510091104 2 1 0.0 0.0 0.00 0.51 0.00 75 1011.5
20260510090604 2 11 0.0 0.0 0.00 0.51 0.00 75 1011.5
20260510090105 2 10 0.0 0.0 0.00 0.51 0.00 75 1011.4
20260510085103 2 9 0.0 0.0 0.00 0.51 0.00 74 1011.3
20260510084604 2 2 0.0 0.0 0.00 0.51 0.00 74 1011.2
20260510084103 2 0 0.0 0.0 0.00 0.51 0.00 75 1011.1
20260510083604 2 0 0.0 0.0 0.00 0.51 0.00 75 1011.1
20260510082603 2 1 0.0 0.0 0.00 0.51 0.00 74 1011.1
20260510081603 2 11 0.0 0.0 0.00 0.51 0.00 74 1011.0
20260510081104 2 10 0.0 0.0 0.00 0.51 0.00 75 1010.9
20260510080603 2 10 0.0 0.0 0.00 0.51 0.00 75 1010.9
20260510080104 2 11 0.0 0.0 0.00 0.51 0.00 75 1010.8
20260510075604 3 10 0.0 0.0 0.00 0.51 0.00 75 1010.8
20260510075104 3 1 0.0 0.0 0.00 0.51 0.00 75 1010.7
20260510074604 3 1 0.0 0.0 0.00 0.51 0.00 75 1010.7
20260510074103 3 1 0.0 0.0 0.00 0.51 0.00 75 1010.6
20260510073604 3 1 0.0 0.0 0.00 0.51 0.00 75 1010.6
20260510073104 3 10 0.0 0.0 0.00 0.51 0.00 74 1010.6
20260510072604 3 10 0.0 0.0 0.00 0.51 0.00 73 1010.6
20260510072103 3 7 0.0 0.0 0.00 0.51 0.00 73 1010.6
20260510071604 3 11 0.0 0.0 0.00 0.51 0.00 75 1010.4
20260510070104 4 0 0.0 0.0 0.00 0.51 0.00 72 1010.3
20260510065603 4 0 0.0 0.0 0.00 0.51 0.00 72 1010.3
20260510065103 4 2 0.0 0.0 0.00 0.51 0.00 72 1010.2
20260510064603 4 0 0.0 0.0 0.00 0.51 0.00 72 1010.1
20260510064103 4 10 0.0 0.0 0.00 0.51 0.00 71 1010.1
20260510063603 4 2 0.0 0.0 0.00 0.51 0.00 71 1010.0
20260510063104 4 1 0.0 0.0 0.00 0.51 0.00 71 1009.9
20260510062603 4 1 0.0 0.0 0.00 0.51 0.00 71 1009.8
20260510062103 5 8 0.0 0.0 0.00 0.51 0.00 70 1009.8
20260510061603 5 9 0.0 0.0 0.00 0.51 0.00 70 1009.8
20260510061103 5 9 0.0 0.0 0.00 0.51 0.00 69 1009.8
20260510060603 5 1 0.0 0.0 0.00 0.51 0.00 69 1009.9
20260510060104 5 0 0.0 0.0 0.00 0.51 0.00 68 1009.8
20260510055603 5 0 0.0 0.0 0.00 0.51 0.00 67 1009.7
20260510055103 5 0 0.0 0.0 0.00 0.51 0.00 67 1009.7
20260510054603 5 0 0.0 0.0 0.00 0.51 0.00 66 1009.6
20260510054103 5 0 0.0 0.0 0.00 0.51 0.00 66 1009.5
20260510053603 5 2 0.0 0.0 0.00 0.51 0.00 66 1009.5
20260510052603 5 10 0.0 0.0 0.00 0.51 0.00 65 1009.5
20260510052104 5 7 0.0 0.0 0.00 0.51 0.00 65 1009.4
20260510050604 5 11 0.0 0.0 0.00 0.51 0.00 66 1009.2
20260510050105 6 1 0.0 0.0 0.00 0.51 0.00 67 1009.1
20260510044604 5 0 0.0 0.0 0.00 0.51 0.00 69 1008.8
20260510044104 5 9 0.0 0.0 0.00 0.51 0.00 70 1008.8
20260510043603 6 0 0.0 0.0 0.00 0.51 0.00 70 1008.8
20260510043103 6 0 0.0 0.0 0.00 0.51 0.00 70 1008.8
20260510042103 6 0 0.0 0.0 0.00 0.51 0.00 69 1008.6
20260510041103 6 0 0.0 0.0 0.00 0.51 0.00 67 1008.5
20260510040604 6 11 0.0 0.0 0.00 0.51 0.00 67 1008.5
20260510040105 6 11 0.0 0.0 0.00 0.51 0.00 67 1008.5
20260510035604 6 8 0.0 0.0 0.00 0.51 0.51 67 1008.4
20260510034604 6 8 0.0 0.0 0.00 0.51 0.51 68 1008.3
20260510033603 6 1 0.0 0.0 0.00 0.51 0.51 69 1008.2
20260510033103 6 2 0.0 0.0 0.00 0.51 0.51 69 1008.3
20260510032603 7 1 0.0 0.0 0.00 0.51 0.51 70 1008.3
20260510030603 7 1 0.0 0.0 0.00 0.51 0.51 73 1008.0
20260510030104 7 1 0.0 0.0 0.00 0.51 0.51 72 1008.0
20260510025603 7 1 0.0 0.0 0.00 0.51 0.51 72 1008.0
20260510025103 7 10 0.0 0.0 0.00 0.51 0.51 72 1007.9
20260510023603 7 10 0.0 0.0 0.00 0.51 0.51 73 1007.9
20260510023103 7 10 0.0 0.0 0.00 0.51 0.51 73 1007.8
20260510022603 7 1 0.0 0.0 0.00 0.51 0.51 74 1007.7
20260510022103 7 1 0.0 0.0 0.00 0.51 0.51 73 1007.8
20260510021603 7 1 0.0 0.0 0.00 0.51 0.51 74 1007.7
20260510021103 7 1 0.0 0.0 0.00 0.51 0.51 74 1007.6
20260510020604 7 1 0.0 0.0 0.00 0.51 0.51 75 1007.5
20260510020104 7 1 0.0 0.0 0.00 0.51 0.51 74 1007.3
20260510015604 7 1 0.0 0.0 0.00 0.51 0.51 74 1007.1
20260510015104 7 1 0.0 0.0 0.00 0.51 0.51 74 1007.1
20260510014603 8 1 0.0 0.0 0.00 0.51 0.51 74 1007.0
20260510014103 8 10 0.0 0.0 0.00 0.51 0.51 73 1006.8
20260510013603 8 10 0.0 0.0 0.00 0.51 0.51 73 1006.6
20260510013104 8 10 0.0 0.0 0.00 0.51 0.51 74 1006.5
20260510012104 8 9 0.0 0.0 0.00 0.51 0.51 75 1006.4
20260510011604 8 2 0.0 0.0 0.00 0.51 0.51 74 1006.3
20260510011103 8 1 0.0 0.0 0.00 0.51 0.51 75 1006.1
20260510010603 8 1 0.0 0.0 0.00 0.51 0.51 76 1005.9
20260510010104 8 1 0.0 0.0 0.00 0.51 0.51 76 1005.9
20260510005104 9 1 0.0 0.0 0.00 0.51 0.51 75 1005.7
20260510004603 9 2 0.0 0.0 0.00 0.51 0.51 75 1005.6
20260510003603 10 10 0.0 0.0 0.00 0.51 0.51 75 1005.5
20260510002603 10 0 0.0 0.0 0.00 0.51 0.51 76 1005.4
20260510001104 11 1 0.0 0.0 0.00 0.51 0.51 86 1004.9
20260510000603 11 1 0.0 0.0 0.00 0.51 0.51 86 1004.7
20260510000104 11 1 0.0 0.0 0.00 0.51 0.51 87 1004.6
20260509235603 11 1 0.0 0.0 0.00 0.51 0.51 88 1004.4
20260509235104 11 7 0.0 0.0 0.00 0.51 0.51 89 1004.3
20260509234104 11 11 0.0 0.0 0.00 0.51 0.51 89 1004.2
20260509233603 11 1 0.0 0.0 0.00 0.51 0.51 89 1004.2
20260509233104 11 2 0.0 0.0 0.00 0.51 0.51 89 1004.2
20260509232603 11 1 0.0 0.0 0.00 0.51 0.51 89 1004.2
20260509232103 11 11 0.0 0.0 0.00 0.51 0.51 89 1004.1
20260509231603 11 9 0.0 0.0 0.00 0.51 0.51 90 1004.1
20260509231103 10 9 0.0 0.0 0.00 0.51 0.51 90 1004.0
20260509230603 10 2 0.0 0.0 0.00 0.51 0.51 90 1004.0
20260509225603 10 2 0.0 0.0 0.00 0.51 0.51 91 1003.7
20260509225104 10 1 0.0 0.0 0.03 0.51 0.51 91 1003.7
20260509224104 10 1 0.0 0.0 0.13 0.51 0.51 92 1003.7
20260509223104 10 11 0.0 0.0 0.25 0.51 0.51 91 1003.7
20260509222603 10 1 0.0 0.0 0.33 0.51 0.51 91 1003.7
20260509222104 9 0 0.0 0.0 0.41 0.51 0.51 91 1003.7
20260509221603 9 9 0.0 0.0 0.41 0.51 0.51 91 1003.7
20260509221104 9 1 0.0 0.0 0.43 0.51 0.51 90 1003.8
20260509215604 9 10 0.0 0.0 0.48 0.51 0.51 89 1003.9
20260509215104 10 1 0.0 0.0 0.46 0.48 0.48 89 1004.2
20260509214604 10 0 0.0 0.0 0.43 0.43 0.43 87 1004.4
20260509213604 10 11 0.0 0.0 0.30 0.30 0.30 85 1004.4
20260509213104 11 10 0.0 0.0 0.23 0.23 0.23 83 1004.5
20260509212604 11 0 0.0 0.0 0.15 0.15 0.15 80 1004.1
20260509212104 12 1 0.0 0.0 0.10 0.10 0.10 76 1004.0
20260509211603 12 10 0.0 0.0 0.10 0.10 0.10 79 1003.8
20260509211103 12 11 0.0 0.0 0.08 0.08 0.08 79 1003.7
20260509210603 13 10 0.0 0.0 0.05 0.05 0.05 78 1003.4
20260509210104 13 10 0.0 0.0 0.05 0.05 0.05 77 1003.2
20260509205604 13 9 0.0 0.0 0.03 0.03 0.03 76 1003.1
20260509205104 13 10 0.0 0.0 0.03 0.03 0.03 74 1002.9
20260509204603 14 1 0.0 0.0 0.03 0.03 0.03 72 1002.7
20260509203604 15 9 0.0 0.0 0.00 0.00 0.00 67 1002.3
20260509203104 15 0 0.0 0.0 0.00 0.00 0.00 65 1002.2